Home   Weather   Tyler   Past weeks

Flag for USA Past Weather in Tyler, Texas, USA — Yesterday and Last 2 Weeks

Now
54 °F

Clear.


Feels Like: 54 °F
Forecast: 56 / 80 °F
Wind: 3 mph from Northwest

Location: Tyler Pounds Field

Current Time: Sep 30, 2016 at 6:53:00 AM

Latest Report: Sep 30, 2016 at 5:53 AM


Visibility: 10 mi

Pressure: 30.16 "Hg

Humidity: 86%

Dew Point: 50 °F

Location of TylerLocation

Past Weather in Tyler — Graph

°F

Tyler Temperature Yesterday

Maximum temperature yesterday: 79 °F (at 3:53 PM)
Minimum temperature yesterday: 60 °F (at 11:53 PM)
Average temperature yesterday: 69 °F

High & Low Weather Summary for the Past Weeks

 TemperatureHumidityPressure
High96 °F (Sep 19, 1:53 PM)100% (Sep 24, 7:53 AM)30.24 "Hg (Sep 24, 7:53 AM)
Low55 °F (Sep 28, 5:53 AM)27% (Sep 28, 4:53 PM)29.85 "Hg (Sep 16, 4:53 PM)
Average79 °F70%30.00 "Hg
* Reported Sep 15 4:53 AM — Sep 30 4:53 AM, Tyler, Weather by CustomWeather, © 2016

Note: Actual official high and low records may vary slightly from our data, if they occured in-between our weather recording intervals... More about our weather records

Advertising

Tyler Weather History for the Previous 24 Hours

Scroll right to see more
 ConditionsComfort  
Time TempWeatherWind HumidityBarometerVisibility
4:53 AM
Fri, Sep 30
55 °FClear.No wind87%30.15 "Hg10 mi
3:53 AM56 °FClear.3 mph84%30.14 "Hg10 mi
2:53 AM56 °FClear.3 mph84%30.16 "Hg10 mi
1:53 AM58 °FClear.3 mph78%30.17 "Hg10 mi
12:53 AM59 °FClear.No wind75%30.18 "Hg10 mi
11:53 PM
Thu, Sep 29
60 °FClear.No wind72%30.19 "Hg10 mi
10:53 PM61 °FClear.No wind72%30.20 "Hg10 mi
9:53 PM64 °FClear.3 mph63%30.20 "Hg10 mi
8:53 PM66 °FClear.3 mph59%30.19 "Hg10 mi
7:53 PM69 °FClear.5 mph51%30.17 "Hg10 mi
6:53 PM75 °FSunny.5 mph42%30.16 "Hg10 mi
5:53 PM78 °FSunny.10 mph33%30.15 "Hg10 mi
4:53 PM79 °FSunny.10 mph31%30.16 "Hg10 mi
3:53 PM79 °FSunny.12 mph32%30.16 "Hg10 mi
2:53 PM77 °FSunny.9 mph33%30.18 "Hg10 mi
1:53 PM77 °FSunny.12 mph33%30.20 "Hg10 mi
12:53 PM75 °FSunny.10 mph39%30.22 "Hg10 mi
11:53 AM74 °FSunny.12 mph41%30.24 "Hg10 mi
10:53 AM70 °FSunny.12 mph47%30.24 "Hg10 mi
9:53 AM68 °FSunny.17 mph51%30.22 "Hg10 mi
8:53 AM66 °FSunny.10 mph59%30.20 "Hg10 mi
7:53 AM62 °FSunny.6 mph65%30.18 "Hg10 mi
6:53 AM62 °FClear.7 mph70%30.16 "Hg10 mi
Weather by CustomWeather, © 2016

See weather overviewHow to use our weather pages